[[{"header":{"parameterUnit":"m.s-1","parameterCategory":1,"la1":30.2991,"la2":30.254,"lo1":-89.0895,"lo2":-89.0444,"dy":0.0017,"dx":0.0017,"nx":28,"ny":28,"refTime":"2025-08-04T09:00:00:Z","depth":0,"parameterNumber":2,"parameterNumberName":"U-component_of_WINDS"},"data":[0,0,0,0,0,0,0,0,0,0,0,0,0,0,0,0,0,0,0,0,0,0,0,0,0,0,0,0,0,0,0,0,0,0,0,0,0,0,0,0,0,0,0,0,0,0,0,0,0,0,0,0,0,0,0,0,0,0,-2.8643,-2.8644,0,-2.8708,-2.8709,-2.871,-2.8723,-2.8723,-2.8722,-2.8722,-2.8784,-2.8786,-2.8788,0,0,0,0,0,0,0,0,0,0,0,0,0,-2.8525,-2.8527,-2.8643,-2.8644,-2.8645,-2.8708,-2.8709,-2.871,-2.8723,-2.8723,-2.8722,-2.8721,-2.8783,-2.8785,-2.8788,0,0,0,0,0,0,0,0,0,0,0,0,0,-2.8582,-2.8528,-2.8643,-2.8659,-2.8661,-2.8708,-2.8709,-2.871,-2.8723,-2.8723,-2.8722,-2.8721,-2.8782,-2.8785,-2.8788,-2.8822,0,0,-2.8798,-2.8799,0,0,0,0,0,0,0,0,-2.8579,-2.8586,-2.8656,-2.8658,-2.866,-2.8707,-2.869,-2.8747,-2.8723,-2.87,-2.8722,-2.8721,-2.8758,-2.8763,-2.8777,-2.8825,-2.8827,-2.8798,-2.88,-2.8801,-2.8802,0,0,0,0,0,0,0,-2.8575,-2.8583,-2.8669,-2.8657,-2.866,-2.8661,-2.8669,-2.8701,-2.8732,-2.8702,-2.8703,-2.871,-2.8759,-2.8774,-2.8779,-2.8828,-2.8798,-2.8801,-2.8803,-2.8804,-2.8905,-2.8906,0,0,0,0,0,0,-2.8569,-2.858,-2.8667,-2.8671,-2.8617,-2.8664,-2.8672,-2.8693,-2.8732,-2.8737,-2.8711,-2.8711,-2.8769,-2.8775,-2.8781,-2.8822,-2.8801,-2.8804,-2.8806,-2.8904,-2.8905,-2.8906,0,0,0,0,0,0,-2.8566,-2.8576,-2.8664,-2.8626,-2.8637,-2.8667,-2.869,-2.8694,-2.8709,-2.8739,-2.8744,-2.8721,-2.8769,-2.8776,-2.8811,-2.8824,-2.8806,-2.8809,-2.8903,-2.8905,-2.8906,-2.8904,0,0,0,0,0,0,-2.8563,-2.8575,-2.859,-2.8626,-2.8639,-2.8695,-2.8691,-2.8696,-2.8715,-2.8715,-2.8749,-2.8754,-2.8769,-2.8807,-2.8815,-2.8828,-2.8811,-2.8902,-2.8904,-2.8905,-2.8903,-2.8905,-2.8907,0,0,0,0,0,-2.8558,-2.8586,-2.859,-2.8601,-2.8658,-2.8696,-2.8703,-2.8721,-2.8716,-2.8729,-2.8749,-2.8753,-2.8822,-2.881,-2.8819,-2.8834,-2.8902,-2.8903,-2.8905,-2.8902,-2.8905,-2.8907,0,0,0,0,0,0,-2.8549,-2.8591,-2.8596,-2.8637,-2.8663,-2.8698,-2.8716,-2.8723,-2.875,-2.8749,-2.8768,-2.8775,-2.8809,-2.8825,-2.8812,-2.8867,-2.8861,-2.8865,-2.8856,-2.8858,-2.886,-2.8855,-2.8814,0,0,0,0,0,-2.8551,-2.858,-2.8615,-2.8647,-2.866,-2.8686,-2.8703,-2.8714,-2.8742,-2.8752,-2.8774,-2.8799,-2.8826,-2.8843,-2.887,-2.8906,-2.8912,-2.892,-2.8922,-2.8923,-2.8925,-2.8944,-2.8947,-2.8912,-2.8912,-2.8912,0,0,-2.8557,-2.8584,-2.86,-2.8646,-2.8668,-2.8695,-2.8695,-2.8725,-2.8745,-2.8756,-2.8791,-2.8808,-2.8836,-2.8872,-2.8888,-2.8886,-2.8937,-2.8925,-2.8926,-2.8928,-2.8946,-2.8949,-2.8952,-2.8913,-2.8913,-2.8913,0,0,-2.8581,-2.8605,-2.8634,-2.8656,-2.8689,-2.8705,-2.8712,-2.8747,-2.8759,-2.8794,-2.8803,-2.8826,-2.8873,-2.8893,-2.8909,-2.894,-2.8944,-2.8948,-2.8956,-2.8974,-2.8977,-2.898,-2.8989,-2.8993,-2.895,-2.895,-2.895,0,-2.8583,-2.8627,-2.8647,-2.8677,-2.8695,-2.8709,-2.8737,-2.8756,-2.8796,-2.8807,-2.8805,-2.8863,-2.8883,-2.8923,-2.893,-2.8943,-2.895,-2.8943,-2.8976,-2.8978,-2.8981,-2.899,-2.8994,-2.895,-2.895,-2.895,-2.895,0,-2.8627,-2.8657,-2.8677,-2.8716,-2.8737,-2.8765,-2.8788,-2.8807,-2.8816,-2.8832,-2.8867,-2.8892,-2.8923,-2.8934,-2.8943,-2.8974,-2.8972,-2.8972,-2.8966,-2.8984,-2.8993,-2.8997,-2.8951,-2.8951,-2.8951,-2.8951,0,0,-2.8647,-2.8697,-2.8703,-2.872,-2.8758,-2.878,-2.8809,-2.8841,-2.8856,-2.8882,-2.8905,-2.8944,-2.8944,-2.8963,-2.8974,-2.899,-2.9011,-2.8988,-2.8989,-2.899,-2.9045,-2.9044,-2.9048,-2.9014,-2.9015,-2.9016,-2.9042,0,-2.8674,-2.8727,-2.8746,-2.8788,-2.8815,-2.8828,-2.8852,-2.8876,-2.8892,-2.8916,-2.8933,-2.896,-2.8959,-2.897,-2.8987,-2.9005,-2.9022,-2.9003,-2.9034,-2.9035,-2.9025,-2.9052,-2.9051,-2.9075,-2.9046,-2.9046,-2.9047,0,-2.8713,-2.8742,-2.8787,-2.882,-2.8832,-2.8854,-2.8884,-2.8908,-2.8935,-2.8945,-2.8965,-2.8976,-2.9004,-2.8997,-2.9035,-2.9022,-2.9035,-2.9046,-2.9047,-2.905,-2.9041,-2.9054,-2.9083,-2.9086,-2.9053,-2.9052,-2.9052,0,-2.8721,-2.877,-2.8804,-2.8818,-2.8858,-2.8873,-2.889,-2.8916,-2.8934,-2.896,-2.8971,-2.9,-2.9015,-2.9036,-2.9052,-2.9046,-2.9088,-2.9083,-2.9096,-2.9095,-2.9103,-2.9102,-2.9133,-2.9114,-2.9114,-2.9114,-2.9114,0,-2.8749,-2.8776,-2.8808,-2.8828,-2.8858,-2.8878,-2.8907,-2.8924,-2.8948,-2.8971,-2.8983,-2.9003,-2.9025,-2.9048,-2.9061,-2.909,-2.9097,-2.9104,-2.9107,-2.9103,-2.9102,-2.9111,-2.9109,-2.9115,-2.9115,-2.9115,-2.9115,0,-2.8762,-2.8785,-2.8822,-2.8856,-2.8866,-2.8886,-2.8915,-2.8934,-2.8951,-2.8979,-2.8987,-2.9012,-2.904,-2.9059,-2.9094,-2.9103,-2.9133,-2.9137,-2.9125,-2.9126,-2.9137,-2.9135,-2.9174,-2.918,-2.9158,-2.9158,-2.9158,0,-2.8778,-2.8799,-2.8836,-2.8853,-2.887,-2.8897,-2.8915,-2.8936,-2.8954,-2.8986,-2.9001,-2.903,-2.9054,-2.9097,-2.9118,-2.9144,-2.9147,-2.9159,-2.9151,-2.9146,-2.9146,-2.9144,-2.9146,-2.916,-2.916,-2.916,-2.916,0,-2.8803,-2.8813,-2.884,-2.887,-2.8892,-2.8917,-2.8941,-2.8954,-2.8978,-2.8998,-2.9027,-2.9046,-2.9082,-2.911,-2.9138,-2.9154,-2.916,-2.9163,-2.9167,-2.9162,-2.9153,-2.9157,-2.9126,-2.9162,-2.9161,-2.9161,-2.9161,-2.9161,-2.8817,-2.8836,-2.8865,-2.8894,-2.8915,-2.8937,-2.8957,-2.8977,-2.9002,-2.9034,-2.9044,-2.9074,-2.9099,-2.9138,-2.9154,-2.9177,-2.9176,-2.9182,-2.9183,-2.9184,-2.9183,-2.9151,-2.9182,-2.9182,-2.9182,-2.9182,-2.9182,0,-2.8841,-2.886,-2.8887,-2.8922,-2.8944,-2.8951,-2.8978,-2.8996,-2.9022,-2.9046,-2.907,-2.9102,-2.9129,-2.9152,-2.918,-2.9193,-2.9197,-2.9199,-2.9198,-2.9201,-2.9183,-2.9177,-2.9196,-2.9196,-2.9196,-2.9196,-2.9196,-2.9196,-2.8856,-2.8888,-2.8902,-2.8944,-2.8963,-2.8993,-2.9008,-2.9028,-2.9047,-2.9084,-2.9107,-2.9122,-2.9145,-2.9174,-2.9198,-2.9204,-2.9213,-2.9215,-2.9221,-2.9204,-2.9202,-2.9201,-2.9194,-2.9217,-2.9217,-2.9237,-2.9237,-2.9237]},{"header":{"parameterUnit":"m.s-1","parameterCategory":1,"la1":30.2991,"la2":30.254,"lo1":-89.0895,"lo2":-89.0444,"dy":0.0017,"dx":0.0017,"nx":28,"ny":28,"refTime":"2025-08-04T09:00:00:Z","depth":0,"parameterNumber":3,"parameterNumberName":"V-component_of_WINDS"},"data":[0,0,0,0,0,0,0,0,0,0,0,0,0,0,0,0,0,0,0,0,0,0,0,0,0,0,0,0,0,0,0,0,0,0,0,0,0,0,0,0,0,0,0,0,0,0,0,0,0,0,0,0,0,0,0,0,0,0,-0.1379,-0.1381,0,-0.1521,-0.1523,-0.1525,-0.1634,-0.1635,-0.1636,-0.1637,-0.1786,-0.1788,-0.1791,0,0,0,0,0,0,0,0,0,0,0,0,0,-0.1205,-0.1207,-0.1379,-0.1381,-0.1383,-0.1521,-0.1523,-0.1525,-0.1634,-0.1635,-0.1636,-0.1638,-0.1785,-0.1788,-0.1792,0,0,0,0,0,0,0,0,0,0,0,0,0,-0.1307,-0.1208,-0.1379,-0.1454,-0.1462,-0.1521,-0.1523,-0.1525,-0.1634,-0.1635,-0.1637,-0.1638,-0.1783,-0.1788,-0.1792,-0.1789,0,0,-0.1806,-0.1808,0,0,0,0,0,0,0,0,-0.1301,-0.1313,-0.1441,-0.1449,-0.1458,-0.1561,-0.1516,-0.1614,-0.1633,-0.1568,-0.1637,-0.1639,-0.171,-0.1721,-0.1744,-0.1796,-0.1802,-0.1806,-0.1809,-0.1811,-0.1812,0,0,0,0,0,0,0,-0.1294,-0.1308,-0.1435,-0.1443,-0.1453,-0.1481,-0.1497,-0.1535,-0.1629,-0.1574,-0.1582,-0.1598,-0.1715,-0.1739,-0.1748,-0.1805,-0.1806,-0.181,-0.1813,-0.1815,-0.1861,-0.1859,0,0,0,0,0,0,-0.1275,-0.1301,-0.1431,-0.144,-0.1381,-0.1483,-0.1501,-0.1527,-0.1629,-0.1646,-0.1596,-0.1602,-0.1731,-0.1743,-0.1754,-0.1756,-0.1811,-0.1815,-0.1818,-0.1862,-0.186,-0.1859,0,0,0,0,0,0,-0.127,-0.1285,-0.1425,-0.1373,-0.1393,-0.1484,-0.1512,-0.1529,-0.1553,-0.1645,-0.1663,-0.1604,-0.1733,-0.1748,-0.1779,-0.1763,-0.1817,-0.1821,-0.1864,-0.1862,-0.1859,-0.176,0,0,0,0,0,0,-0.1265,-0.1283,-0.1282,-0.1372,-0.1395,-0.1447,-0.1511,-0.153,-0.156,-0.1569,-0.1657,-0.1673,-0.1735,-0.1772,-0.1783,-0.177,-0.1825,-0.1866,-0.1863,-0.186,-0.1765,-0.1755,-0.1746,0,0,0,0,0,-0.1258,-0.1249,-0.1281,-0.1296,-0.1396,-0.1446,-0.1459,-0.153,-0.1558,-0.1559,-0.1618,-0.167,-0.1763,-0.1774,-0.1788,-0.1775,-0.1867,-0.1864,-0.186,-0.1769,-0.1757,-0.1746,0,0,0,0,0,0,-0.1156,-0.1262,-0.1299,-0.1319,-0.1372,-0.1464,-0.1466,-0.1514,-0.1561,-0.1568,-0.1655,-0.1673,-0.1695,-0.1739,-0.175,-0.1778,-0.1822,-0.1821,-0.1748,-0.1736,-0.1727,-0.1715,-0.1828,0,0,0,0,0,-0.1136,-0.1167,-0.1258,-0.1267,-0.1292,-0.1374,-0.1398,-0.1448,-0.1507,-0.1531,-0.1593,-0.1649,-0.1691,-0.1716,-0.176,-0.1773,-0.1793,-0.1771,-0.1761,-0.1753,-0.1751,-0.1759,-0.175,-0.1848,-0.1848,-0.1848,0,0,-0.1094,-0.1156,-0.117,-0.1248,-0.1295,-0.1325,-0.1392,-0.1422,-0.1446,-0.1536,-0.1568,-0.1616,-0.1684,-0.1706,-0.1719,-0.1743,-0.1728,-0.1748,-0.1741,-0.1744,-0.1755,-0.1746,-0.1737,-0.1846,-0.1846,-0.1846,0,0,-0.1033,-0.1084,-0.1095,-0.1141,-0.1211,-0.1266,-0.1269,-0.1354,-0.1388,-0.1422,-0.149,-0.152,-0.1591,-0.1636,-0.1669,-0.1625,-0.1674,-0.1637,-0.1585,-0.1593,-0.1585,-0.1579,-0.1562,-0.1554,-0.1635,-0.1635,-0.1635,0,-0.0973,-0.102,-0.1096,-0.1121,-0.1153,-0.1235,-0.1247,-0.1289,-0.137,-0.139,-0.1417,-0.1506,-0.1558,-0.1591,-0.158,-0.1604,-0.1609,-0.1626,-0.158,-0.1574,-0.157,-0.1554,-0.1548,-0.1629,-0.163,-0.1631,-0.1631,0,-0.0942,-0.0974,-0.0975,-0.105,-0.1082,-0.1101,-0.118,-0.1204,-0.125,-0.1302,-0.1336,-0.1402,-0.1459,-0.1471,-0.1518,-0.151,-0.1523,-0.1564,-0.1609,-0.1554,-0.1541,-0.1535,-0.1622,-0.1624,-0.1625,-0.1627,0,0,-0.082,-0.0935,-0.0934,-0.0969,-0.1052,-0.1079,-0.1102,-0.1157,-0.1175,-0.1229,-0.125,-0.1307,-0.1345,-0.1381,-0.1435,-0.1441,-0.14,-0.1481,-0.1484,-0.1462,-0.1394,-0.1362,-0.1354,-0.1435,-0.1434,-0.1433,-0.1388,0,-0.0771,-0.0814,-0.0883,-0.0904,-0.0934,-0.1013,-0.1033,-0.1087,-0.1136,-0.117,-0.1225,-0.1264,-0.1311,-0.1334,-0.1344,-0.1403,-0.1388,-0.1408,-0.1454,-0.1455,-0.1432,-0.1347,-0.1313,-0.1267,-0.1384,-0.1383,-0.1382,0,-0.0719,-0.0766,-0.079,-0.087,-0.0886,-0.0902,-0.0958,-0.0989,-0.1052,-0.1087,-0.1127,-0.1185,-0.1213,-0.1256,-0.1296,-0.1308,-0.1331,-0.1363,-0.1363,-0.1369,-0.1414,-0.1349,-0.1255,-0.1247,-0.1375,-0.1376,-0.1376,0,-0.0625,-0.0695,-0.0718,-0.0746,-0.084,-0.085,-0.089,-0.0954,-0.0983,-0.1032,-0.1052,-0.1104,-0.1132,-0.1172,-0.1242,-0.1267,-0.1274,-0.1323,-0.1304,-0.1302,-0.13,-0.1299,-0.1206,-0.1318,-0.1318,-0.1318,-0.1319,0,-0.0562,-0.0573,-0.0677,-0.069,-0.0705,-0.0785,-0.0797,-0.0845,-0.0901,-0.0926,-0.0999,-0.1021,-0.1113,-0.1146,-0.1202,-0.1225,-0.1238,-0.1268,-0.1282,-0.126,-0.1256,-0.1275,-0.1279,-0.1317,-0.1317,-0.1317,-0.1318,0,-0.0458,-0.0528,-0.0558,-0.0646,-0.0668,-0.0675,-0.075,-0.0766,-0.082,-0.0851,-0.0863,-0.0948,-0.099,-0.1064,-0.1129,-0.1166,-0.1178,-0.1204,-0.1156,-0.1164,-0.1141,-0.1141,-0.1056,-0.1048,-0.1166,-0.1164,-0.1163,0,-0.0412,-0.0422,-0.051,-0.0531,-0.0568,-0.0602,-0.0631,-0.071,-0.0738,-0.0809,-0.0817,-0.0865,-0.0907,-0.0972,-0.1039,-0.1089,-0.1115,-0.1082,-0.1123,-0.11,-0.1112,-0.111,-0.1111,-0.1072,-0.107,-0.1069,-0.1068,0,-0.0322,-0.0356,-0.0395,-0.0445,-0.0478,-0.0522,-0.057,-0.0583,-0.0673,-0.0701,-0.0744,-0.0777,-0.0842,-0.0888,-0.0947,-0.099,-0.1043,-0.1054,-0.1052,-0.1029,-0.1,-0.1013,-0.1128,-0.1055,-0.1057,-0.1058,-0.1058,-0.1059,-0.0245,-0.0257,-0.032,-0.0361,-0.0405,-0.0448,-0.0467,-0.0523,-0.056,-0.0618,-0.0663,-0.0703,-0.0766,-0.085,-0.089,-0.0922,-0.0947,-0.0945,-0.0944,-0.0941,-0.0931,-0.0996,-0.0934,-0.0934,-0.0935,-0.0935,-0.0935,0,-0.0157,-0.0201,-0.0238,-0.0302,-0.0333,-0.0381,-0.0436,-0.046,-0.0493,-0.0547,-0.0587,-0.0636,-0.0682,-0.0753,-0.0804,-0.0816,-0.0842,-0.0827,-0.0826,-0.0834,-0.0907,-0.0903,-0.0805,-0.0805,-0.0805,-0.0805,-0.0805,-0.0805,-0.0115,-0.0137,-0.0178,-0.0223,-0.0269,-0.0307,-0.0334,-0.0374,-0.0417,-0.0469,-0.0506,-0.0552,-0.0613,-0.0669,-0.0713,-0.0733,-0.0747,-0.0724,-0.0751,-0.0817,-0.0829,-0.0841,-0.0837,-0.0727,-0.0727,-0.0675,-0.0674,-0.0674]}]]